Tracking 19817 objects as of 20-Aug-2019
HD Live streaming from Space Station
objects crossing your sky now

COSMOS 2251 DEB

Track COSMOS 2251 DEB now!
10-day predictions


NORAD ID: 34390
Int'l Code: 1993-036QF
Perigee: 659.5 km
Apogee: 763.7 km
Inclination: 74.1 °
Period: 98.9 minutes
Semi major axis: 7082 km
RCS: 0.0402 m2 (small)
Launch date: June 16, 1993
Source: Commonwealth of Independent States (former USSR) (CIS)
Launch site: PLESETSK MISSILE AND SPACE COMPLEX (PKMTR)

Note: This is SATELLITE DEBRIS
aabbcc
Your satellite tracking list
Your tracking list is empty




NASA's NSSDC Master Catalog

Two Line Element Set (TLE):
1 34390U 93036QF  19231.94913506 +.00000515 +00000-0 +11839-3 0  9999
2 34390 074.0912 042.0864 0073516 288.5532 193.6341 14.56506258554051
Source of the keplerian elements: AFSPC